Theta_e
314 314 315 315 316 316 315 315 317 317 317 318 318 317 319 320 322 323 322 324 328 330 329 326 327 330 331 332 333 333 334 334 332 326 323 327 334 335 334 337 333 321 320 319 317 319 317 318 317 317 322 323 326 327 323 324 328 326 330 337 338 338 337 333 324 322 325 325 326 325 326 330 326 324 322 321 326 327 332 337 335 336 336 333 334 333 334 332
314 314 315 315 315 315 315 315 316 316 317 317 318 318 318 320 322 323 323 323 326 329 329 326 326 329 331 332 332 333 334 333 329 324 326 332 333 332 333 335 334 324 320 319 318 318 319 321 318 321 328 326 328 328 326 326 325 329 332 331 335 339 335 328 322 320 320 321 324 322 324 327 326 325 322 323 324 328 336 333 335 346 340 333 333 332 333 330
314 314 314 314 314 314 315 316 315 315 317 317 318 319 318 320 321 322 323 322 325 329 329 326 326 329 331 332 331 334 333 329 327 326 330 333 331 332 333 333 333 326 320 320 319 317 318 320 317 324 331 329 332 331 331 329 326 335 334 327 334 336 325 317 319 318 317 320 321 318 320 322 324 324 322 324 325 327 337 337 338 348 342 335 333 331 331 330
313 314 314 314 314 314 314 316 315 315 317 318 318 319 319 320 321 322 322 322 325 329 330 326 326 329 331 332 332 332 329 327 328 329 330 332 332 332 332 332 331 328 322 319 319 317 317 318 319 326 330 330 335 333 333 333 331 333 330 333 338 328 319 315 316 317 316 318 320 319 319 320 319 320 323 325 326 326 330 333 339 348 342 336 333 330 330 330
313 313 313 314 314 314 315 315 315 314 316 317 318 320 320 320 321 322 322 322 325 329 330 326 325 329 331 332 332 327 327 332 332 329 328 331 332 332 332 330 328 329 325 320 319 318 318 320 323 329 330 333 335 333 337 335 331 331 328 338 338 321 318 317 315 316 316 317 320 319 318 319 317 318 325 326 327 329 327 326 332 341 338 334 333 330 330 329
312 313 313 313 314 314 315 314 314 314 315 317 318 320 321 321 321 322 322 322 324 326 328 326 324 328 330 331 330 326 328 333 330 328 326 328 331 332 331 328 324 325 323 320 319 319 321 325 327 330 332 333 335 336 340 333 326 333 331 333 334 321 317 316 315 316 316 317 319 319 317 317 317 317 321 324 327 331 331 325 326 334 334 333 332 330 331 330
312 312 312 313 313 314 315 315 315 315 315 317 318 319 321 322 322 323 322 323 324 325 327 326 325 328 329 327 326 325 328 329 326 327 327 326 330 331 330 325 321 322 321 320 320 323 326 329 329 333 333 332 335 337 340 333 326 333 334 333 332 322 318 316 316 317 317 318 318 317 315 315 318 317 318 320 324 328 326 318 317 328 332 332 332 331 331 330
312 312 312 313 313 313 315 315 315 316 316 317 319 320 321 323 323 323 322 323 324 325 328 327 325 328 328 323 323 325 328 328 325 327 328 327 328 331 328 322 320 321 320 319 321 324 326 329 329 331 332 333 335 336 336 333 328 331 335 336 328 318 317 317 317 317 316 317 316 315 315 317 319 316 316 318 323 324 321 316 318 328 333 332 334 333 331 330
312 312 312 312 313 313 314 315 315 317 317 317 320 321 322 323 323 323 322 322 323 324 327 328 326 328 327 322 322 327 329 328 325 326 329 328 329 331 327 321 321 321 319 318 320 322 324 328 329 330 334 334 334 337 336 333 334 333 333 332 322 317 318 317 317 317 316 316 316 316 316 320 318 315 317 318 320 320 320 326 330 333 336 334 334 333 331 330
312 312 312 312 312 313 313 315 315 317 318 318 320 321 322 322 322 322 322 322 322 322 325 328 327 327 325 321 324 330 329 327 327 326 328 329 329 329 325 322 322 320 319 319 320 322 324 325 327 331 334 333 333 336 336 335 337 336 333 329 321 319 318 317 319 318 317 317 317 318 318 322 319 316 320 320 319 317 317 329 334 333 339 336 334 334 331 331
312 311 311 311 312 313 314 315 316 317 318 319 319 320 321 322 322 323 322 322 322 322 324 328 327 327 324 322 326 329 327 327 327 326 328 329 329 327 323 321 321 320 319 320 322 322 323 323 324 328 331 332 335 335 334 335 334 332 331 327 322 321 318 317 319 319 316 317 319 318 319 323 320 317 319 320 320 318 316 327 333 334 337 335 335 334 331 331
312 311 311 312 312 313 315 316 316 317 318 319 319 319 320 321 321 321 320 320 321 321 324 328 328 326 323 323 326 327 325 327 328 327 328 329 329 328 325 322 320 320 319 321 323 323 323 324 325 329 332 333 336 335 335 334 331 329 330 329 327 327 327 321 319 320 317 318 322 319 322 325 320 318 318 317 320 319 316 322 330 331 332 334 335 334 332 331
312 312 312 312 312 313 315 316 317 317 318 319 319 319 320 319 318 317 317 318 319 318 321 327 328 325 324 325 326 325 324 326 327 327 328 329 328 327 325 323 320 320 318 321 324 324 325 326 327 331 334 337 337 333 333 331 329 331 332 334 334 332 337 331 319 320 318 318 324 324 330 334 326 323 320 317 317 318 317 318 322 325 327 330 332 334 334 331
311 311 311 311 312 313 314 316 317 317 317 318 319 319 319 318 316 317 318 317 317 316 319 325 326 323 324 325 325 325 325 325 327 328 327 327 325 323 323 321 320 320 319 322 324 325 326 327 327 329 333 338 337 331 330 331 333 335 333 334 337 336 342 339 322 319 320 319 324 327 331 333 330 331 330 322 317 316 318 319 318 319 321 323 327 332 334 331
312 311 311 311 312 313 314 315 317 317 317 317 318 319 318 317 317 320 319 316 317 317 317 322 323 322 324 325 324 324 324 324 326 327 327 326 324 322 322 321 320 320 322 323 324 326 327 327 330 334 333 332 334 335 335 335 336 336 336 337 338 338 341 341 327 320 322 321 322 327 330 330 328 330 332 327 320 318 318 318 319 317 318 319 321 326 331 332
311 311 310 311 312 313 313 314 316 316 316 317 318 318 318 318 318 320 318 315 317 317 316 322 321 321 326 326 324 324 324 324 326 326 326 325 324 322 322 322 321 322 324 325 325 326 326 329 335 336 334 333 337 341 339 337 337 334 337 340 340 339 337 339 335 324 323 323 320 324 330 333 334 332 332 326 320 320 318 318 318 317 317 318 319 320 325 329
311 310 310 311 312 314 314 314 315 314 314 315 317 317 317 318 317 317 316 316 318 316 316 321 320 322 326 323 324 325 323 324 324 324 324 325 325 323 322 323 323 323 324 325 326 326 328 332 332 331 335 338 338 340 340 339 339 335 335 339 339 339 336 338 341 328 321 322 322 324 326 330 334 334 337 331 320 319 320 318 317 317 316 317 319 319 319 323
311 310 310 311 312 313 315 315 314 312 313 315 317 317 315 317 316 315 316 316 316 316 317 319 319 323 326 321 324 327 323 324 324 322 323 324 324 323 322 324 323 324 325 326 328 329 331 333 332 333 337 338 335 336 338 338 338 336 334 336 338 338 337 337 339 330 321 322 324 325 325 324 326 326 331 331 321 317 319 318 317 317 317 316 318 319 319 320
310 311 312 312 311 311 313 315 314 312 314 316 317 316 315 316 315 314 315 315 317 318 318 318 318 322 324 322 324 325 323 323 323 322 322 323 323 322 322 324 323 324 326 327 329 331 333 333 334 336 336 335 334 333 335 336 335 335 333 335 337 337 337 335 336 329 321 322 324 325 326 324 324 324 324 327 324 320 318 317 317 316 316 316 316 317 319 320
311 312 312 311 311 311 311 315 315 313 314 317 316 314 315 316 315 315 315 314 314 315 315 317 318 319 320 321 323 325 324 324 322 322 322 323 322 322 323 323 324 326 325 325 330 330 330 333 333 334 333 332 333 332 333 334 334 334 334 335 336 336 336 334 334 330 322 325 326 325 326 325 325 325 324 324 325 324 322 319 317 316 316 316 316 317 318 320
311 312 312 311 311 311 312 315 315 313 314 316 314 313 314 314 315 316 315 312 311 311 312 314 315 315 316 318 321 324 325 324 323 322 322 322 322 324 325 324 326 327 325 325 330 330 329 332 331 329 330 330 332 333 332 333 334 335 334 335 336 335 334 332 329 327 323 327 330 326 326 326 324 324 324 323 323 323 323 321 319 317 316 316 317 318 318 318
311 312 311 311 311 312 313 314 315 314 315 315 312 312 313 312 313 313 313 313 311 311 312 312 312 313 313 313 315 321 325 326 325 322 321 322 322 325 325 323 325 326 324 326 330 331 331 331 329 327 330 331 332 332 332 332 335 336 334 334 335 333 332 331 326 323 322 328 334 330 327 326 324 323 322 322 323 322 322 321 320 319 318 317 316 317 317 317
311 311 311 312 312 313 314 314 315 315 315 313 311 311 310 311 312 311 313 313 311 311 311 311 312 312 313 313 313 319 326 326 325 323 321 322 322 324 324 322 324 324 325 328 329 332 332 329 327 327 331 332 332 332 332 333 335 336 334 333 335 334 333 334 328 322 321 325 330 328 326 325 323 323 322 321 322 322 322 322 321 319 319 318 317 317 316 317
311 312 312 312 313 314 314 314 314 313 313 312 311 310 309 311 311 310 314 314 311 311 310 310 311 312 313 314 314 319 325 325 325 324 321 322 323 323 323 323 324 324 326 327 327 330 330 328 326 328 330 331 333 333 332 334 334 335 334 331 333 334 333 333 328 324 323 324 325 324 328 329 325 325 324 322 322 321 320 322 321 321 320 319 319 318 317 317
311 312 312 313 313 314 314 314 312 311 312 311 311 311 310 311 310 310 315 314 312 312 311 310 311 311 312 314 315 318 323 325 324 323 321 321 324 324 324 323 323 325 326 326 327 328 328 327 327 328 330 331 332 333 332 333 334 335 333 329 330 331 331 330 326 326 327 329 329 324 331 340 334 329 328 325 326 323 320 320 321 321 321 321 321 319 318 318
311 311 312 312 313 314 314 313 311 310 310 310 311 312 310 310 311 311 314 314 313 314 313 312 312 312 312 314 316 318 323 325 323 322 321 321 323 324 326 324 323 325 326 325 327 328 327 327 327 328 330 331 332 332 331 332 334 335 333 329 328 330 332 330 326 329 334 334 331 324 331 341 333 329 330 329 328 326 324 323 321 320 320 321 320 319 319 318
311 311 311 311 312 314 313 312 311 310 310 310 312 313 311 309 310 311 313 313 313 314 313 312 313 314 313 316 318 319 324 324 323 323 322 322 323 324 326 327 325 325 325 326 329 330 327 327 329 329 330 331 332 332 330 330 334 335 332 329 328 330 334 330 328 335 336 332 330 327 330 334 331 330 330 328 328 329 327 325 323 322 320 320 321 320 320 318
311 311 311 311 312 312 311 311 310 310 310 311 312 313 312 310 309 311 312 313 314 313 313 312 313 314 315 318 318 319 322 323 326 325 320 321 323 325 328 327 325 326 325 327 330 330 326 327 329 329 330 331 331 331 330 330 332 331 331 332 330 331 334 331 332 336 332 330 333 331 326 331 336 335 330 327 327 327 326 324 324 324 323 321 320 320 320 320
311 312 312 312 312 310 310 311 310 310 310 311 312 312 311 309 309 310 312 314 314 313 314 314 315 316 318 320 318 318 320 322 325 322 318 321 321 323 328 327 325 327 326 326 330 329 326 327 327 328 330 330 330 331 330 330 331 328 329 331 330 330 329 330 335 337 333 333 336 331 326 331 337 333 328 326 326 324 321 321 322 321 322 323 321 321 320 320
311 311 311 312 310 309 310 311 310 311 311 311 312 311 309 309 309 310 310 313 315 314 314 315 317 319 320 319 319 319 319 320 322 320 320 322 321 321 326 326 327 329 328 329 330 328 326 326 326 328 329 328 328 329 329 329 328 326 328 329 328 330 330 333 335 335 336 334 333 333 329 329 334 335 330 327 327 328 324 325 327 324 324 323 322 322 320 320
311 311 311 311 309 309 310 310 310 311 311 311 311 308 308 310 311 309 309 313 317 316 315 316 318 320 319 317 318 319 317 318 320 322 322 323 322 323 326 327 329 330 330 331 329 326 327 328 328 329 327 326 327 325 325 327 326 327 330 328 329 332 334 336 333 333 338 333 328 331 330 327 332 337 335 328 327 329 327 329 332 329 329 328 326 324 322 321
311 311 311 309 308 309 310 309 310 311 311 310 309 307 308 311 311 310 310 314 318 316 315 317 319 320 318 317 317 318 317 316 318 320 322 324 324 325 328 330 330 331 331 329 327 326 328 328 326 326 324 324 326 326 326 326 325 326 328 328 331 333 333 335 332 332 335 329 323 324 327 327 328 330 329 324 322 322 322 324 327 328 330 332 333 328 323 322
310 310 310 308 308 309 310 310 310 311 310 309 307 308 309 310 311 310 311 314 315 315 316 318 319 319 318 317 317 317 315 316 317 318 320 323 325 324 327 329 328 331 331 328 327 328 328 327 325 325 324 323 324 326 327 328 325 325 326 327 331 332 333 334 331 331 332 328 322 321 325 327 327 327 325 322 319 320 322 323 325 328 329 331 333 327 322 323
310 309 308 307 307 308 309 310 311 310 308 307 307 308 309 310 311 310 311 312 313 315 317 318 319 319 318 317 317 317 316 316 317 317 318 320 322 323 325 326 327 330 330 326 326 328 329 329 326 325 325 324 323 325 327 327 326 326 327 328 330 331 332 332 330 330 330 326 320 318 324 330 330 329 325 320 319 321 324 325 323 327 331 331 328 324 323 324
309 308 307 307 307 308 309 310 311 309 307 306 308 309 309 310 311 311 312 312 313 316 318 318 319 319 318 318 317 316 317 317 316 317 317 317 318 320 322 325 326 328 328 326 325 326 329 331 327 325 325 324 324 326 325 326 327 327 328 330 330 329 331 331 328 328 327 326 324 321 325 331 328 324 320 318 320 321 323 324 321 322 328 328 325 324 327 328
308 306 306 307 307 308 309 310 310 308 306 307 309 309 308 309 311 312 311 312 314 317 318 318 319 319 319 318 318 317 317 317 317 317 317 316 316 317 319 323 325 325 328 328 327 327 329 330 325 324 325 323 324 326 323 326 329 327 327 329 327 326 330 330 323 323 325 326 326 323 325 330 326 321 320 321 322 321 321 323 321 320 323 325 326 326 328 329
306 306 306 307 307 308 309 310 308 306 306 308 309 308 308 307 310 311 309 311 316 318 319 319 318 319 320 318 318 317 317 317 317 317 318 317 318 316 316 320 323 324 327 327 327 328 329 329 324 324 326 323 323 325 323 325 327 327 328 327 325 325 332 334 327 326 326 327 329 324 323 330 328 323 323 323 323 322 320 322 322 320 321 323 325 327 328 330
305 306 306 306 307 308 309 309 307 305 307 308 308 309 309 307 308 309 309 312 316 318 318 318 318 318 319 319 318 317 317 317 317 317 318 318 320 317 314 317 320 322 325 324 325 328 328 328 324 323 325 323 322 324 325 324 325 326 327 325 327 330 331 331 330 330 328 327 331 327 322 325 326 326 325 321 322 322 319 321 322 320 320 322 325 327 328 329
305 306 306 306 307 307 308 307 305 305 308 308 308 309 310 309 308 308 309 311 315 317 318 317 316 316 317 318 319 318 317 317 317 317 318 318 319 319 317 317 319 321 324 324 326 327 326 328 327 324 324 324 324 325 326 326 324 325 325 323 328 331 329 329 328 328 327 327 329 329 327 328 325 325 325 320 321 322 319 321 322 320 318 321 325 326 328 327
305 306 306 305 306 307 307 305 304 306 307 307 307 308 307 307 308 308 310 311 312 314 316 316 316 318 318 317 318 318 317 318 318 317 318 318 318 319 319 319 320 321 322 323 326 326 324 327 328 324 322 325 327 326 325 326 325 325 325 325 327 326 326 329 327 326 329 330 332 330 326 330 330 323 320 319 319 320 320 321 321 318 316 321 325 325 328 326
304 306 306 303 304 305 305 305 305 306 307 307 307 306 306 307 307 307 310 311 310 310 313 315 316 317 317 316 317 317 316 318 319 317 317 318 318 320 320 320 321 322 322 323 325 325 324 327 327 324 324 327 327 325 324 324 324 324 325 325 325 325 325 328 327 327 328 327 332 329 322 329 336 324 316 318 318 319 321 321 321 320 317 321 323 322 323 323
304 306 305 303 303 304 304 306 305 305 307 307 306 306 307 308 308 307 309 311 310 309 312 313 313 314 316 316 316 315 315 318 319 318 318 318 318 320 321 320 321 322 323 323 324 323 323 326 326 324 325 325 323 322 324 326 324 325 327 325 324 324 325 326 326 328 328 324 327 329 324 326 331 324 318 319 319 319 321 320 321 321 317 318 319 317 317 319
304 305 304 303 303 303 305 305 304 305 306 305 304 304 306 307 307 307 309 311 309 310 312 314 313 312 314 315 315 314 314 316 317 317 318 318 318 319 320 320 321 323 324 323 324 323 321 323 325 325 324 322 320 321 324 325 324 325 328 327 325 323 323 325 326 327 327 325 324 326 324 323 327 326 323 321 319 317 318 320 321 320 316 315 315 315 315 318
304 304 304 303 301 302 304 304 305 305 304 303 304 304 303 305 305 306 309 310 310 311 312 312 312 311 312 314 315 314 315 316 316 316 317 318 319 318 319 321 321 323 324 324 324 323 321 322 324 325 325 323 323 324 324 324 324 325 326 325 324 323 323 326 327 325 326 327 325 325 325 323 323 323 320 319 320 318 318 318 319 319 317 315 313 313 314 317
303 303 303 302 300 302 303 303 304 304 303 303 305 304 303 304 303 305 308 309 310 312 310 309 310 312 313 314 314 315 315 316 316 314 314 316 318 318 319 321 321 322 323 323 323 323 321 321 323 326 327 326 327 329 327 326 325 325 325 324 323 324 323 324 325 323 324 327 325 324 323 321 319 319 317 316 319 321 319 316 315 317 316 314 312 312 314 316
304 304 304 302 301 303 304 303 303 303 303 304 304 304 304 304 303 304 306 306 307 309 309 310 310 311 311 313 314 316 316 315 316 314 313 314 317 318 318 319 320 321 322 322 322 322 319 318 320 323 325 325 325 328 328 327 325 326 325 324 324 324 323 322 324 324 323 325 324 323 322 322 322 322 321 319 321 324 321 316 315 316 314 313 311 311 313 314
304 304 303 302 302 302 304 304 303 302 302 303 303 303 303 304 303 302 304 304 305 306 308 310 310 310 311 312 314 315 316 315 315 314 313 313 315 316 316 317 319 320 319 319 320 320 319 319 319 319 320 322 323 324 325 325 325 325 325 324 324 324 323 324 324 323 322 324 324 323 321 323 323 321 323 324 323 323 320 317 317 316 314 313 311 310 311 311
303 302 302 303 303 303 303 303 302 302 302 302 302 302 303 304 303 303 304 304 303 304 307 308 310 312 313 313 313 313 314 315 315 314 315 314 314 314 315 317 319 319 318 318 318 319 319 319 319 318 318 320 320 321 323 324 324 324 324 325 323 323 324 324 324 323 322 323 323 322 322 322 320 319 321 322 321 322 321 318 315 313 313 313 310 310 312 312
300 302 302 303 304 303 302 302 301 302 302 302 302 302 302 303 303 303 305 304 302 303 305 306 309 312 314 314 312 312 314 315 314 315 316 316 315 315 315 318 319 317 317 319 318 318 320 320 318 317 319 320 320 320 321 322 324 324 324 324 323 323 323 323 323 322 322 322 322 321 322 321 319 319 318 317 318 320 318 314 312 312 314 315 312 311 312 311
301 302 302 303 303 302 301 301 301 302 302 302 303 302 301 302 302 302 304 304 303 303 304 305 307 310 312 313 312 311 313 314 314 316 317 316 316 316 316 319 320 316 316 319 319 318 320 320 317 316 320 321 320 320 320 321 322 324 324 324 323 323 323 323 323 323 323 323 322 321 323 321 319 319 318 318 317 318 317 315 314 315 315 315 313 311 311 310
298 299 299 301 302 301 301 301 301 301 302 301 302 302 301 301 302 301 302 303 304 304 304 303 304 305 308 312 312 311 312 313 314 315 316 316 316 316 315 318 321 319 317 317 318 318 318 318 315 316 321 322 320 320 319 319 321 322 323 324 323 323 323 322 323 323 323 323 323 323 324 321 319 320 320 320 319 318 318 317 316 315 313 314 314 312 311 310
298 298 299 301 302 301 301 301 301 301 301 301 301 301 301 301 301 300 301 302 303 305 305 304 303 303 305 308 310 310 311 311 311 313 316 316 315 315 314 314 317 319 319 318 317 317 317 316 315 317 321 322 320 319 319 319 320 322 322 322 322 322 323 322 322 322 322 323 323 323 323 321 321 323 321 319 318 317 316 315 315 314 312 311 312 312 311 310
Wind_Speed
28 29 29 30 31 32 33 33 33 33 34 32 31 31 32 32 32 32 32 33 34 33 32 31 31 31 29 27 26 26 25 23 20 19 19 25 33 27 18 22 23 13 13 14 13 12 7 7 10 6 1 2 1 1 1 1 2 2 2 3 2 3 3 4 4 5 3 2 4 3 3 7 3 2 1 2 6 4 3 5 3 5 5 2 3 13 32 34
28 29 29 30 32 33 33 34 34 34 34 33 32 32 33 33 33 33 32 33 33 33 34 32 31 30 29 29 27 28 26 22 20 19 27 32 29 27 20 19 23 17 12 13 15 14 9 6 8 2 3 2 0 1 1 1 1 2 3 2 3 4 4 4 5 5 3 2 2 3 2 5 5 4 2 2 2 3 4 4 5 5 5 4 8 22 32 31
28 29 29 31 33 33 34 34 34 35 34 33 33 33 34 34 34 33 32 33 33 33 34 34 32 30 30 30 29 30 25 17 13 17 33 36 26 26 24 18 22 22 16 14 15 16 14 11 10 5 4 1 1 2 2 0 1 2 3 2 5 5 3 2 4 5 4 4 5 1 1 2 3 3 2 4 5 4 4 3 0 1 2 4 9 21 28 28
28 29 29 30 31 32 34 34 34 35 34 33 33 34 36 35 35 34 32 33 34 33 35 35 32 31 32 31 32 31 20 8 7 18 35 37 30 27 25 21 21 25 20 14 14 15 15 11 7 5 3 2 1 2 2 2 2 2 3 4 5 3 3 3 3 4 4 5 6 3 2 2 2 2 2 6 6 4 6 7 8 8 9 8 7 15 23 23
28 29 30 30 30 32 34 34 34 35 34 33 34 35 36 37 36 35 33 33 35 35 35 37 33 32 35 33 34 29 16 3 7 22 37 37 34 29 25 23 20 24 24 17 14 13 12 7 5 4 3 3 1 3 3 4 3 2 3 5 5 4 3 4 4 4 3 4 5 4 4 2 1 0 3 8 7 6 6 8 10 10 12 14 13 16 19 19
28 29 30 30 30 32 33 34 35 35 34 33 33 34 35 37 36 35 34 33 37 37 35 38 36 33 36 36 36 31 17 5 7 24 38 36 36 32 27 24 20 22 23 20 15 10 8 4 5 3 3 3 4 4 4 4 4 2 3 3 5 5 3 3 3 3 2 5 4 4 3 1 2 2 4 7 7 7 6 8 9 11 17 20 19 18 16 16
27 28 29 29 30 31 32 34 34 34 34 33 32 32 34 36 36 35 33 33 36 37 34 36 36 35 36 35 32 23 15 9 4 18 34 36 37 34 28 24 22 22 22 22 15 8 6 6 6 5 5 3 5 5 4 2 3 3 3 4 5 5 5 5 5 3 3 5 4 3 2 2 4 3 2 5 8 8 7 5 7 13 19 20 17 16 17 19
27 28 29 29 31 32 31 33 32 33 33 32 31 30 32 35 35 35 33 33 35 35 34 35 36 36 36 31 20 8 10 12 4 11 27 36 39 35 30 25 24 25 25 25 19 11 7 8 8 5 5 5 5 5 4 3 1 4 5 4 3 3 5 5 5 4 3 3 2 3 2 5 7 3 1 6 9 8 7 3 5 11 14 15 15 15 16 17
27 28 29 30 31 32 32 32 31 31 32 31 29 29 31 32 32 32 31 32 34 36 36 38 38 37 37 27 12 5 14 22 9 4 21 36 40 39 33 28 28 27 25 26 24 17 8 7 8 6 6 6 5 5 6 5 2 6 7 4 3 3 5 4 4 5 4 3 2 3 5 7 5 2 3 8 10 7 3 4 6 11 12 13 13 15 16 15
27 27 28 29 30 32 31 31 31 31 31 31 29 28 30 31 30 27 29 30 31 36 35 39 40 38 37 21 9 8 17 30 18 3 18 36 40 40 36 32 31 29 24 23 22 17 10 8 8 5 5 4 5 4 5 6 4 6 6 4 3 3 4 4 5 6 3 2 4 6 7 7 3 2 5 7 9 7 5 6 6 11 12 13 12 13 17 17
26 26 27 28 29 31 32 31 30 30 32 32 29 28 28 27 27 24 24 26 29 33 32 37 41 41 37 18 10 8 9 29 27 9 19 36 40 41 39 35 33 31 25 18 18 18 13 13 12 6 2 4 5 3 3 5 4 5 6 3 0 1 2 2 4 5 2 2 5 6 5 6 2 3 7 7 6 5 7 8 8 10 11 12 12 11 13 16
25 26 26 26 28 30 32 31 30 31 32 32 29 27 27 24 24 22 18 18 22 26 28 37 44 42 31 11 11 10 6 27 32 17 22 35 40 41 39 37 34 33 29 17 14 18 16 15 16 8 3 4 5 3 3 4 4 4 6 3 2 3 3 5 4 4 4 3 4 6 4 7 6 8 10 8 6 5 7 8 9 10 10 10 11 9 10 15
26 26 25 26 28 29 31 31 31 32 32 31 28 26 26 25 23 20 16 14 16 16 22 39 49 43 25 5 12 16 10 24 32 22 27 35 35 35 35 34 32 30 29 20 15 16 16 18 18 8 2 4 4 2 1 1 4 4 4 3 1 3 4 7 4 3 5 4 4 6 3 7 8 12 12 9 9 6 5 7 9 9 8 8 9 8 9 13
26 26 26 27 28 30 31 31 31 32 33 31 28 26 25 25 22 19 18 15 14 9 12 33 48 37 18 4 9 20 17 21 30 28 31 34 30 27 29 30 28 25 23 20 16 14 14 17 14 6 1 3 3 1 3 2 1 3 2 1 2 2 5 5 4 6 5 3 6 7 4 8 7 10 11 8 8 9 8 8 8 8 7 7 8 9 10 12
25 25 26 27 28 29 30 30 29 31 33 30 27 26 25 25 21 19 18 13 12 7 7 25 39 24 7 2 7 20 22 21 29 34 34 35 30 22 23 28 23 19 18 17 16 15 16 15 10 5 2 1 3 3 3 2 2 2 3 1 2 4 4 5 2 9 8 3 5 7 3 8 9 9 10 6 6 8 10 10 8 8 9 8 8 9 9 10
25 25 26 27 27 28 30 29 28 30 31 29 26 25 27 26 23 19 16 12 11 8 6 17 26 20 5 2 11 19 18 18 29 34 34 37 34 25 26 27 20 18 17 15 16 15 14 10 4 2 3 2 4 5 4 1 2 2 4 4 3 5 3 3 4 8 9 3 2 6 4 5 6 7 7 3 5 8 9 10 10 9 9 9 8 8 9 8
26 26 26 28 28 28 29 29 29 30 30 28 26 25 26 25 23 18 14 14 10 5 7 7 10 13 6 5 13 15 13 17 28 32 31 36 36 33 31 21 14 18 17 12 12 11 6 4 1 1 3 2 4 6 4 6 6 3 2 2 3 5 4 2 5 5 7 6 5 8 7 8 8 7 8 5 2 6 8 10 10 10 9 8 8 8 8 9
27 27 27 29 29 29 27 27 28 29 28 26 25 24 23 21 21 18 13 13 9 1 5 7 5 6 4 6 10 16 21 22 27 31 29 29 35 38 33 19 13 17 14 7 5 5 2 2 2 2 2 4 6 8 9 8 7 6 5 4 5 5 5 6 5 3 7 7 7 7 8 13 13 10 10 8 2 5 8 10 9 10 10 9 8 8 8 9
28 28 29 30 30 30 27 26 26 27 25 22 22 21 19 17 14 11 10 10 7 3 3 4 4 4 4 6 7 16 27 27 27 28 26 26 31 32 26 21 18 16 12 6 4 4 3 3 3 5 8 10 10 12 10 5 8 9 7 8 7 5 5 5 5 4 8 7 6 9 10 13 14 13 12 11 6 5 8 8 7 8 9 9 8 8 9 9
28 28 30 30 29 30 28 27 26 27 25 22 25 21 13 11 6 4 6 7 6 4 0 3 4 4 6 3 6 18 24 26 24 21 27 32 30 23 14 14 15 10 12 12 8 4 4 6 8 12 14 14 13 12 9 5 8 10 7 7 7 5 5 4 4 6 6 6 7 11 11 12 14 13 11 9 7 7 9 9 9 9 8 8 9 9 9 10
28 28 30 30 30 31 31 29 27 29 28 28 29 14 4 9 6 4 5 3 8 6 4 4 2 7 9 4 4 18 19 16 18 19 30 35 29 20 9 11 14 8 12 14 8 4 4 10 16 17 14 12 12 10 8 6 7 9 8 6 6 5 5 5 4 5 5 5 6 7 9 13 13 12 11 8 8 9 10 10 11 12 10 8 9 10 11 9
29 29 32 32 32 31 31 30 28 31 29 29 26 7 3 9 3 7 10 2 6 7 4 8 8 14 15 11 11 10 13 11 15 17 26 30 22 17 10 11 16 13 12 12 8 6 7 14 19 15 10 9 10 9 10 8 6 7 7 6 6 5 2 4 3 3 4 6 4 3 5 10 11 11 11 10 10 11 10 11 12 12 12 11 10 11 11 10
30 31 34 33 32 30 30 30 30 32 31 28 22 6 7 10 4 11 12 3 2 6 5 9 10 14 16 12 16 10 12 13 14 14 22 25 16 15 14 13 17 15 14 15 12 11 11 16 18 13 9 11 10 10 12 9 6 6 6 7 6 4 4 4 3 2 3 4 2 1 3 8 8 8 10 10 11 11 11 12 12 11 12 13 13 12 12 12
32 33 34 33 32 29 28 30 29 30 30 28 22 9 10 13 11 14 8 3 1 4 7 10 7 10 13 10 11 8 8 10 12 15 22 22 13 13 16 16 17 14 13 20 21 19 16 12 13 14 11 13 11 10 13 10 7 7 7 8 5 5 7 5 2 1 1 3 1 2 4 7 6 8 11 8 7 10 11 11 12 12 11 11 11 11 12 13
34 33 33 33 32 30 31 29 25 26 25 22 17 10 15 17 15 14 6 2 1 1 6 8 3 10 15 10 7 7 3 5 9 16 22 22 17 12 12 12 12 14 18 23 21 18 14 9 15 17 14 15 14 12 15 12 8 7 8 9 6 6 7 4 4 4 3 4 3 2 2 7 4 6 11 6 4 9 8 8 13 13 10 10 10 11 11 11
35 33 33 34 32 33 29 17 17 25 19 12 13 13 19 22 17 11 5 3 1 1 6 8 5 8 12 7 3 4 4 2 6 18 23 25 19 9 9 10 6 13 21 18 12 8 7 11 16 17 16 17 16 12 15 14 9 7 8 10 8 6 7 6 7 5 3 4 4 1 4 6 6 5 8 5 5 10 9 9 12 10 10 11 11 11 11 11
35 35 35 33 33 34 23 9 17 23 12 8 17 18 19 24 20 9 3 3 3 3 7 5 4 7 7 6 7 4 5 3 7 16 20 21 15 3 7 13 9 12 14 9 6 5 9 15 16 17 17 16 14 13 15 16 11 6 6 12 11 7 7 8 7 4 2 3 3 2 3 4 7 6 6 4 5 10 11 11 11 9 11 12 11 11 12 12
36 37 35 33 37 35 20 16 22 16 9 14 21 19 19 25 19 6 3 1 2 4 5 4 4 6 5 5 8 4 4 3 7 9 12 15 11 1 6 15 15 16 16 13 12 10 16 21 21 22 18 13 14 12 14 16 10 3 6 9 7 6 6 6 6 3 2 1 3 3 3 2 7 7 4 2 5 11 13 12 12 12 12 11 11 12 12 13
37 36 33 35 37 27 18 24 25 16 17 22 22 22 24 24 15 3 2 2 1 2 3 5 5 5 5 4 5 3 4 2 2 1 7 10 6 2 4 12 14 16 17 15 11 8 12 18 21 22 16 13 13 10 14 16 8 3 9 9 5 4 4 4 4 4 3 1 6 6 4 3 6 7 4 1 4 11 13 10 11 12 12 11 11 11 10 10
37 35 34 37 32 20 19 24 23 21 23 24 24 26 23 15 7 3 1 2 1 2 3 4 5 7 10 6 3 4 4 1 3 2 3 6 3 2 2 2 6 12 13 9 4 1 4 9 12 13 12 10 8 8 11 13 9 8 9 8 6 4 4 3 2 5 2 4 6 8 8 4 4 6 4 4 6 8 7 7 8 9 10 11 10 9 9 8
38 37 38 39 30 24 21 15 18 25 25 26 28 23 14 5 1 3 3 1 2 3 2 3 6 9 14 11 5 5 5 2 1 1 2 3 4 4 4 2 2 7 10 8 3 0 5 9 8 6 8 9 9 6 5 7 10 9 6 6 6 2 3 3 3 3 3 6 4 7 8 6 6 7 4 7 7 6 6 6 8 9 9 9 9 8 8 8
38 39 41 37 30 27 21 16 24 29 28 30 26 13 6 3 1 4 2 2 2 3 4 5 9 11 14 14 8 7 6 2 3 2 2 3 3 5 10 9 8 8 7 8 5 2 5 9 9 5 6 12 14 9 4 5 8 7 6 8 7 2 2 3 1 2 5 5 2 4 5 4 9 8 9 13 12 9 8 8 9 10 10 8 7 7 6 6
40 40 37 31 28 26 24 26 32 32 32 30 18 5 3 3 4 5 2 0 1 2 3 5 9 11 13 12 8 7 5 2 5 3 3 2 2 5 9 10 11 7 5 11 9 5 5 5 8 7 4 10 14 12 8 7 9 10 10 11 8 5 5 6 4 1 3 4 3 3 3 3 5 5 12 19 17 12 9 9 10 8 8 8 6 5 5 3
42 40 31 25 25 25 28 33 35 35 31 21 10 4 4 3 4 3 1 3 2 2 1 4 9 11 12 11 8 10 7 3 6 4 2 2 3 4 5 6 9 2 4 11 6 8 10 5 9 13 7 12 16 14 12 11 12 11 8 7 6 6 6 6 5 3 3 2 2 2 2 4 3 3 9 12 12 9 6 7 8 7 7 6 5 6 5 4
40 36 27 23 23 25 32 35 36 37 27 11 5 6 6 6 3 2 2 3 2 2 2 4 9 10 9 8 7 11 8 3 7 6 2 3 2 3 3 4 7 3 7 11 2 6 9 3 8 10 5 15 17 8 8 11 9 6 4 6 5 5 5 3 4 5 4 2 1 2 3 4 4 7 11 9 8 7 7 8 7 8 8 5 4 6 5 6
35 29 23 21 23 27 35 36 36 36 21 7 5 6 5 4 3 3 4 3 3 3 4 4 7 7 6 4 5 10 7 3 7 7 3 4 2 3 4 3 4 4 6 10 4 5 6 2 8 7 4 15 15 7 10 11 8 4 5 7 4 4 7 5 2 2 4 2 2 3 5 5 3 8 11 10 11 8 7 7 7 8 7 5 6 7 6 6
30 23 15 15 23 28 33 36 37 32 15 5 7 7 3 2 2 3 2 3 3 3 4 3 3 4 5 3 4 9 8 4 7 7 3 4 3 4 4 5 3 5 4 4 2 4 5 3 4 6 8 10 8 11 11 6 5 6 7 8 3 3 3 4 2 2 3 2 3 3 7 4 2 5 5 6 13 13 8 6 6 7 6 7 7 7 7 7
24 18 9 11 23 27 30 36 34 21 7 4 8 6 1 1 2 1 1 1 3 4 3 2 2 2 3 4 4 8 10 7 7 7 4 4 3 7 8 3 5 6 7 2 1 4 4 4 1 1 5 3 4 10 8 1 0 5 7 8 6 2 3 2 3 3 2 4 4 3 4 4 6 6 2 4 12 14 12 7 6 7 7 7 7 8 8 6
21 12 4 11 24 26 30 34 24 11 4 5 8 5 2 2 2 2 2 1 3 3 3 2 1 1 1 3 4 7 10 8 8 6 3 5 3 6 13 8 3 8 10 3 1 4 2 5 2 1 1 3 4 7 8 4 2 3 4 6 3 3 5 5 3 3 4 4 4 3 3 4 7 7 6 10 12 13 13 10 8 9 9 8 7 8 7 6
13 6 3 14 26 28 32 26 12 5 4 5 4 2 1 1 1 1 3 3 3 2 1 2 2 1 0 1 1 4 7 7 7 5 3 6 4 3 10 11 6 8 10 5 1 2 2 2 4 1 2 3 6 7 11 12 6 4 7 8 4 2 2 2 2 3 4 4 3 3 4 6 6 5 12 15 13 12 13 12 10 8 8 9 8 8 7 6
6 6 3 14 27 30 27 15 4 3 4 1 1 1 0 0 1 1 4 5 3 1 1 3 3 2 2 1 1 1 4 5 6 5 3 5 5 3 6 11 11 9 8 7 4 1 1 1 5 5 3 6 10 7 8 14 13 10 9 10 10 6 4 4 3 2 3 2 4 4 6 8 5 5 10 13 11 10 11 11 9 7 9 10 9 8 8 7
5 6 5 19 31 27 17 5 1 4 3 2 3 2 1 1 2 2 3 5 3 3 2 2 2 2 2 2 1 3 2 4 5 6 4 6 9 6 5 11 13 12 9 7 7 2 2 2 5 7 5 6 6 1 1 6 9 6 4 7 8 6 6 7 7 4 4 3 2 3 4 8 4 5 8 9 8 9 9 9 9 8 9 10 9 8 7 7
4 5 10 23 24 15 9 3 2 4 1 1 3 2 2 2 2 2 2 2 3 3 2 2 1 1 2 2 2 3 2 1 2 4 4 5 7 5 4 10 12 11 10 7 7 2 3 2 5 5 1 2 2 4 5 2 4 4 2 4 6 7 8 7 5 4 4 4 3 2 6 7 4 3 6 7 7 6 5 8 10 9 7 7 8 8 7 7
4 4 6 13 7 2 5 4 4 5 2 2 3 2 2 2 2 2 2 1 1 2 1 1 2 1 2 2 3 3 3 1 2 2 1 2 3 2 2 9 11 10 9 8 7 4 1 2 4 4 3 2 1 0 2 2 2 5 4 6 10 13 9 4 2 3 3 7 8 6 8 7 4 3 2 4 4 5 6 7 9 8 6 7 8 7 7 8
6 4 2 3 3 2 3 3 4 6 4 5 5 4 3 2 1 2 3 2 1 3 2 1 1 2 3 3 4 2 2 2 1 2 3 2 3 2 1 6 10 9 8 10 12 7 2 3 3 5 8 8 8 9 8 7 6 6 8 12 15 17 15 9 4 4 5 8 10 9 10 4 3 4 3 2 2 5 6 5 6 7 7 8 7 7 8 8
6 3 3 3 3 3 1 1 5 6 5 7 5 3 5 3 1 0 3 2 1 3 3 0 1 3 3 4 3 1 1 2 2 1 1 1 3 3 3 2 9 10 6 10 13 8 3 2 4 6 7 6 6 8 9 12 11 10 13 17 18 18 18 13 7 7 10 7 6 10 13 6 5 7 6 4 4 6 6 5 7 8 7 7 7 8 8 8
4 3 6 5 1 1 2 2 5 5 5 7 4 4 6 4 1 2 2 1 0 2 2 1 2 2 1 2 2 1 1 2 2 2 1 1 3 4 4 4 5 7 5 6 5 4 4 3 7 9 11 5 3 4 5 14 16 16 17 19 17 15 15 12 10 14 11 5 4 14 15 14 16 12 7 7 6 6 6 7 8 8 7 7 6 7 8 8
3 3 4 4 3 5 4 3 7 6 5 5 3 4 7 5 3 2 1 1 2 2 2 1 2 4 5 4 3 1 1 2 3 3 2 2 2 3 2 4 4 5 7 3 1 3 4 4 7 8 10 8 4 6 3 12 16 19 21 22 21 18 18 18 19 20 13 8 14 21 18 18 19 12 10 11 9 7 8 8 6 5 5 5 6 7 9 10
5 3 2 3 2 7 7 5 8 8 7 6 3 4 8 8 8 5 2 2 2 2 2 1 3 5 6 5 4 2 3 3 3 4 3 3 4 2 1 3 3 2 7 5 1 3 3 3 6 7 7 10 7 5 3 6 12 16 18 20 21 22 24 24 24 24 18 13 18 21 16 16 18 14 13 12 9 7 6 3 2 3 5 6 8 10 11 12
5 3 3 4 3 5 7 6 9 8 6 6 3 3 6 9 11 7 3 6 4 2 3 6 7 6 6 6 6 5 6 7 5 5 4 5 5 3 2 3 1 1 2 4 2 3 4 2 5 7 5 10 11 8 6 5 8 15 18 17 18 19 21 22 22 21 16 15 20 21 16 17 18 13 9 6 6 6 4 4 4 6 7 8 9 10 13 14
4 3 6 6 4 5 6 5 6 6 4 5 4 3 5 9 12 8 3 5 8 6 6 10 10 4 4 4 6 8 9 9 8 6 6 5 3 2 1 2 2 2 2 3 2 3 5 2 3 5 4 8 10 12 12 9 7 10 15 17 17 17 18 18 20 20 18 18 22 20 16 17 15 6 6 7 8 8 8 9 8 8 8 10 11 14 16 15
6 5 6 6 4 5 6 4 5 4 4 5 7 5 5 7 7 8 3 2 3 6 7 10 8 4 3 4 10 12 10 8 6 4 5 4 2 1 1 3 4 2 4 4 1 1 3 3 2 4 5 6 7 12 14 9 5 8 11 16 20 21 21 20 20 21 20 17 16 16 17 16 7 5 7 8 10 12 12 11 10 10 11 12 13 15 15 13
Wind_Direction
239 239 239 238 237 238 239 239 239 238 237 237 235 233 234 233 232 233 230 227 227 227 225 221 219 218 216 216 215 213 207 200 196 192 203 219 218 218 217 211 207 195 184 189 198 206 206 220 236 258 282 185 138 133 62 34 92 73 96 122 189 197 204 204 190 201 186 220 253 252 166 130 155 233 219 31 53 64 51 25 356 3 17 179 206 157 159 165
239 238 238 238 237 236 237 238 238 238 237 235 234 234 233 232 231 232 230 227 226 226 222 217 217 215 213 211 210 211 208 200 193 197 213 219 220 221 218 211 207 198 192 195 201 201 187 203 217 180 78 170 282 99 113 327 120 118 127 151 217 199 217 213 175 197 198 173 214 262 207 147 169 180 143 126 130 98 83 7 351 21 24 64 126 144 155 164
239 237 238 239 239 237 236 236 237 238 237 235 233 232 233 231 230 230 229 226 224 223 219 215 214 212 210 207 207 208 201 194 196 211 219 217 218 220 217 214 206 199 202 203 206 208 201 203 196 144 92 193 242 98 119 194 191 170 131 170 237 207 215 238 167 192 216 165 144 222 256 130 184 178 149 159 164 163 163 187 312 230 195 132 134 146 156 165
238 237 237 238 239 237 235 236 235 235 236 237 234 232 233 229 228 229 228 225 221 219 216 212 211 210 208 204 206 202 182 183 220 214 217 215 215 217 214 214 206 202 206 207 213 219 215 204 177 138 119 206 289 93 154 213 194 166 146 187 227 188 172 229 203 201 210 154 141 165 125 108 230 191 156 147 148 218 226 203 193 193 181 163 160 157 161 169
237 237 237 237 237 236 235 235 234 234 234 236 235 234 231 227 227 227 227 225 219 218 216 211 210 210 207 204 202 187 158 201 212 204 216 213 211 214 210 210 205 204 207 211 220 214 210 196 138 114 118 182 193 97 213 220 157 166 206 199 202 157 161 238 227 206 191 129 115 132 151 168 205 158 162 151 163 226 228 211 202 182 168 168 168 167 168 173
237 237 237 236 236 235 234 234 235 233 231 234 234 233 231 225 223 224 225 223 220 220 214 207 207 209 208 202 193 177 165 218 176 197 215 210 206 209 206 206 201 205 207 209 218 201 190 170 136 153 144 171 181 176 230 219 146 172 241 226 208 177 174 228 216 215 157 114 128 158 176 135 90 258 198 166 196 226 223 207 191 177 173 170 165 165 172 178
236 236 236 235 234 234 233 233 233 231 230 230 231 230 230 226 220 221 220 220 222 220 211 205 204 207 204 190 183 182 191 226 197 195 206 203 203 202 200 199 194 203 203 200 207 194 177 162 167 170 146 171 194 202 221 191 143 160 229 254 222 192 190 201 189 193 134 141 184 157 121 148 179 218 186 192 230 234 247 240 180 175 169 163 163 172 182 185
235 235 235 233 233 233 232 231 229 230 228 225 227 225 225 224 219 218 216 218 221 216 213 206 202 206 198 176 171 202 211 211 225 196 195 196 197 194 194 191 192 201 197 196 199 190 177 171 184 163 150 201 192 190 184 129 125 186 216 246 201 190 203 195 172 171 173 178 177 117 149 223 206 192 184 229 248 243 242 260 150 159 157 162 174 182 187 189
234 235 234 233 233 230 229 229 226 226 225 220 221 221 220 219 216 217 215 219 221 217 216 205 200 204 193 173 163 222 212 197 196 189 188 190 190 188 188 186 192 199 195 199 200 189 179 181 196 174 166 199 178 180 177 155 221 211 201 205 170 197 202 176 174 190 201 197 148 156 232 256 232 218 264 237 240 239 177 114 137 151 159 177 184 187 190 193
234 235 234 234 233 229 226 225 222 221 220 216 215 218 219 214 212 213 212 215 217 219 218 202 198 197 185 172 169 215 213 197 195 186 184 186 185 183 184 184 189 194 194 199 198 189 182 187 188 164 149 167 177 182 172 172 204 199 181 181 164 177 197 171 193 215 220 229 190 193 240 269 274 231 247 247 240 225 144 133 160 161 172 187 191 194 194 196
232 233 233 233 232 228 223 219 219 218 218 215 212 214 214 207 202 201 206 211 212 220 220 201 195 189 181 176 189 208 199 193 199 196 183 184 182 181 183 184 186 190 193 195 198 193 192 190 167 138 152 171 173 169 196 191 162 158 153 157 301 97 232 209 208 224 199 251 196 177 256 283 307 236 228 239 237 196 165 172 175 177 186 191 195 199 197 204
229 230 230 231 229 227 223 217 214 215 215 212 210 208 206 201 195 191 195 203 208 221 222 204 196 188 179 181 205 196 166 193 199 194 187 185 183 185 185 184 186 191 192 186 193 195 195 188 161 149 214 169 150 151 224 205 130 132 135 155 286 3 289 227 213 216 171 206 177 137 307 281 238 237 230 224 216 173 165 180 184 192 196 193 199 199 202 210
226 227 228 228 225 224 223 218 212 211 209 207 206 200 199 199 198 196 191 193 202 220 226 208 196 185 177 190 207 191 178 193 195 191 187 184 183 184 184 185 187 193 197 188 181 184 185 180 165 161 178 135 159 199 201 139 124 139 120 137 201 2 291 229 200 175 167 196 155 133 285 265 236 245 240 225 217 202 189 195 196 200 199 198 201 199 207 210
224 225 225 226 224 221 222 217 211 208 205 206 204 196 197 200 201 197 186 192 203 217 239 205 188 179 180 188 185 187 185 184 188 186 182 178 173 171 177 182 185 192 197 188 174 168 173 172 155 130 90 128 164 176 54 46 108 141 119 108 151 185 269 255 195 155 173 220 144 134 246 260 257 258 254 236 208 206 219 220 208 205 203 202 203 203 210 209
222 222 221 223 221 219 221 217 209 206 203 203 201 198 199 195 188 180 176 187 202 214 253 201 181 167 183 242 165 180 179 172 179 181 179 174 163 157 168 171 174 181 180 174 165 161 166 165 143 127 178 102 111 110 70 16 347 137 170 214 169 200 264 300 237 170 183 239 142 144 225 268 271 260 262 250 188 195 219 228 220 212 209 206 207 207 211 213
218 218 218 218 217 216 219 216 210 207 202 200 201 199 195 185 173 169 176 182 188 194 210 199 183 170 183 227 161 169 172 173 178 178 178 177 168 160 156 153 152 156 155 152 149 151 157 151 134 146 140 99 126 124 99 84 268 237 193 187 184 206 238 316 286 205 187 157 165 199 225 273 279 273 285 283 179 193 216 228 226 219 216 211 210 210 212 216
215 215 214 213 212 211 212 210 206 205 203 200 198 195 193 185 177 174 177 182 189 188 186 210 210 195 193 142 154 165 173 179 177 172 173 179 175 160 148 139 130 133 131 128 137 145 145 128 159 181 105 122 148 130 157 206 206 218 178 170 216 215 199 214 282 251 182 163 200 218 235 245 256 286 308 327 170 190 215 227 227 224 224 219 214 215 215 214
211 212 210 209 209 207 207 206 204 203 200 198 197 196 190 176 170 171 166 178 193 207 217 242 261 235 205 165 167 166 171 174 172 170 171 177 173 162 154 143 125 125 121 115 141 151 119 69 143 158 141 170 167 167 197 208 181 175 170 182 232 227 203 207 242 237 168 183 205 202 233 247 255 273 281 292 251 194 225 231 230 229 229 229 223 220 218 216
209 209 207 208 207 206 206 204 204 200 193 192 185 177 169 154 151 163 157 162 174 151 197 214 214 271 281 212 185 156 164 168 166 169 168 169 167 162 155 143 137 137 139 154 190 175 138 101 131 176 195 195 188 190 197 172 152 173 181 193 212 217 222 221 234 222 170 178 212 203 223 242 250 257 257 268 262 230 248 248 245 240 234 236 231 228 227 222
207 207 205 206 204 203 203 200 199 193 187 177 158 146 148 150 141 169 160 161 205 233 347 112 143 278 298 271 137 135 152 162 161 168 172 167 159 152 146 141 143 150 161 170 179 174 157 171 197 205 202 194 188 190 188 149 148 169 182 202 208 200 231 238 246 246 177 169 226 215 225 241 245 253 255 264 272 262 260 254 251 245 239 238 232 234 232 228
203 203 202 202 198 200 200 196 194 190 184 167 153 145 163 167 159 183 157 165 234 247 287 280 307 285 270 299 119 138 144 162 166 172 174 166 153 150 163 158 152 170 180 164 146 139 172 198 213 211 198 185 180 179 182 173 160 175 187 203 212 202 228 233 233 257 186 182 247 223 229 250 251 258 261 264 268 257 247 242 245 242 240 240 234 237 235 237
200 201 200 199 196 198 197 193 193 186 177 167 163 168 182 169 154 161 151 130 236 211 236 254 279 284 265 284 291 190 152 161 173 175 171 164 159 165 176 169 165 178 175 150 134 149 189 216 214 202 175 162 168 171 182 189 177 187 192 192 212 206 237 271 260 274 184 191 250 218 225 254 254 257 256 251 253 252 243 234 236 235 236 237 232 235 237 243
198 197 198 200 195 195 194 192 191 181 174 173 178 177 165 173 131 140 146 84 219 184 199 226 236 267 266 280 292 246 171 166 170 173 172 167 170 171 166 174 177 172 162 162 168 170 197 218 203 178 154 157 166 174 182 193 196 196 190 191 213 184 172 248 261 249 197 195 219 191 268 271 257 263 259 241 237 248 249 241 239 233 231 234 230 230 231 232
195 194 195 196 190 189 188 184 182 178 176 177 180 172 160 163 138 134 132 56 148 188 201 214 219 250 262 274 291 269 182 173 167 168 175 172 167 165 168 178 177 167 172 179 180 186 202 202 169 164 165 164 171 180 184 194 208 207 200 196 200 177 189 216 195 148 310 295 322 70 325 286 247 253 259 247 239 250 251 249 252 244 235 242 241 236 232 228
193 192 192 190 185 180 175 171 173 176 174 174 177 171 162 162 151 140 117 60 175 277 193 192 210 241 251 256 275 284 203 176 175 167 173 177 168 162 173 180 176 173 181 183 183 197 204 163 152 170 172 171 181 190 191 194 200 216 215 199 186 182 192 183 143 107 53 293 296 77 293 283 272 253 257 265 274 263 258 249 252 252 243 242 244 242 237 236
191 190 190 190 182 171 167 168 175 171 163 170 178 164 164 169 167 154 107 41 246 231 162 160 159 214 233 218 180 256 232 200 170 163 170 178 176 170 174 173 182 184 180 180 184 202 194 159 163 173 172 178 189 196 195 188 191 219 203 182 190 184 166 156 154 135 140 233 291 85 190 267 298 263 249 260 273 269 271 260 253 253 246 238 236 236 231 234
189 188 186 187 180 168 165 163 168 166 157 175 171 158 164 172 175 172 100 15 260 161 146 164 159 164 187 170 141 189 230 139 135 163 172 178 178 190 185 172 175 185 172 167 193 188 164 165 167 172 176 183 194 200 193 183 190 214 162 166 185 172 157 162 154 148 179 224 320 16 153 251 284 261 243 268 294 281 274 268 261 247 239 238 236 233 227 227
187 185 183 182 175 171 169 157 156 165 170 163 155 150 159 167 172 171 101 154 235 130 144 189 190 158 152 144 145 187 265 120 141 168 165 170 177 148 190 185 180 176 167 172 194 181 168 173 173 174 178 189 198 195 178 175 191 201 125 148 169 145 147 149 133 128 54 38 279 267 155 209 270 272 271 306 291 277 269 262 262 254 243 238 236 232 227 227
184 180 180 176 168 169 174 164 162 174 173 160 150 147 151 158 161 118 86 189 100 96 152 160 167 160 135 130 159 204 308 51 115 125 142 163 179 103 180 199 184 170 174 187 194 176 174 181 175 172 180 192 189 170 164 175 191 158 116 104 84 76 84 95 112 109 59 327 231 210 178 207 269 263 254 283 260 263 265 259 253 254 252 247 243 237 230 230
178 176 177 171 164 162 162 163 169 173 168 162 153 145 141 145 149 99 153 202 95 128 162 152 175 159 143 150 173 198 244 312 50 43 155 162 153 87 92 208 178 168 178 188 190 161 155 162 167 175 188 184 153 137 163 171 151 120 110 93 80 54 39 50 64 85 87 267 227 188 177 180 274 263 223 215 218 224 245 265 267 263 259 254 250 245 236 230
174 173 172 167 166 164 154 155 169 165 163 160 150 140 131 113 106 149 167 144 85 145 152 149 165 150 154 168 176 185 207 266 62 133 205 160 143 148 142 142 171 168 173 171 171 88 116 139 163 190 181 148 121 127 153 145 134 119 113 122 119 67 19 26 14 66 198 249 236 185 168 166 235 259 238 234 232 206 206 244 269 274 270 260 249 245 236 229
170 171 169 166 166 165 159 161 162 159 161 156 142 133 132 105 238 205 194 37 65 192 189 161 166 164 166 173 176 171 171 196 193 217 248 175 160 177 172 175 171 165 174 169 163 154 142 163 173 172 168 152 144 149 134 138 153 136 136 150 143 147 185 186 215 192 214 250 265 172 152 188 237 256 262 258 256 239 218 225 249 266 276 272 255 251 246 230
167 166 165 165 165 163 161 159 158 159 158 149 134 116 126 138 205 207 216 233 122 184 179 155 166 168 164 171 179 163 156 185 179 210 280 200 188 207 195 190 178 170 167 159 152 150 167 204 182 157 161 165 159 162 162 172 180 171 167 170 166 163 180 193 194 218 238 254 260 157 147 257 268 262 248 250 255 249 225 223 236 246 256 260 267 281 287 254
163 160 158 161 163 162 159 157 158 159 151 136 124 127 143 192 198 141 171 226 170 115 143 154 160 162 169 181 179 162 163 196 171 173 282 212 206 218 223 210 189 154 116 151 161 166 168 205 189 173 169 172 176 181 174 165 175 184 170 159 169 167 178 191 182 191 214 231 261 190 182 211 195 253 249 245 264 276 255 234 234 245 251 256 284 295 289 265
159 157 153 153 154 156 159 159 161 158 147 124 123 150 173 204 197 135 187 220 194 141 124 143 151 160 180 183 172 173 176 187 179 177 188 187 210 226 234 208 186 154 138 156 179 170 169 204 185 181 177 171 176 179 152 142 162 194 153 147 187 174 150 149 167 172 152 130 233 210 231 220 199 284 285 267 269 270 259 255 240 244 255 252 260 258 249 251
153 151 146 140 143 154 160 160 161 156 146 122 141 175 198 191 186 201 186 157 164 156 118 127 153 166 183 168 169 185 177 136 167 179 194 181 189 240 253 248 196 206 173 162 157 168 174 191 174 173 169 173 173 152 152 160 162 171 171 176 188 137 124 115 149 119 94 158 230 195 241 290 319 286 282 274 276 263 237 249 248 239 233 213 223 232 231 238
145 144 135 128 142 156 161 160 157 152 142 132 167 188 198 158 188 204 165 132 149 127 109 135 175 169 165 156 175 179 167 150 163 170 178 169 183 201 230 301 266 244 237 168 171 193 157 129 179 172 165 178 167 145 160 182 152 148 180 179 129 76 94 98 130 43 64 208 261 224 231 269 279 259 278 268 268 267 242 228 251 254 225 210 226 236 231 233
134 132 109 122 146 155 161 161 155 143 123 151 182 190 125 126 220 242 354 143 114 87 109 155 174 153 156 162 172 167 163 166 165 166 167 167 198 176 168 255 285 261 274 310 317 245 148 110 290 206 157 166 120 138 154 292 97 151 170 167 142 152 197 152 162 180 167 213 271 275 249 242 214 225 281 235 237 254 260 241 232 241 222 212 230 238 240 247
128 122 92 144 150 152 159 160 150 127 119 169 189 206 180 198 244 331 343 28 75 83 130 150 111 59 130 157 152 157 167 174 164 167 181 171 194 175 164 176 245 250 264 303 35 265 161 127 172 283 146 157 140 157 176 190 11 51 126 161 160 166 184 182 167 155 164 202 248 288 304 247 222 201 202 226 225 230 246 246 227 221 210 206 218 225 234 238
127 113 117 158 153 152 153 148 131 121 158 176 185 189 176 207 246 330 358 41 58 49 119 147 143 97 70 181 117 146 169 179 168 174 202 171 174 194 170 168 179 223 246 259 253 290 333 131 159 143 13 160 175 191 186 179 165 137 163 180 180 135 129 163 167 121 129 165 205 260 277 254 244 193 195 218 226 216 225 236 232 215 201 210 217 215 218 217
122 109 138 163 153 149 144 130 104 144 140 135 124 95 129 182 124 63 9 35 60 16 84 127 142 117 102 138 7 50 162 179 176 174 194 179 182 230 192 178 172 181 218 250 259 267 321 186 154 152 166 184 191 201 193 187 182 176 184 184 176 166 127 145 207 192 128 164 179 198 260 262 245 194 200 214 221 218 220 226 231 213 199 213 218 211 209 203
120 111 148 162 155 149 138 108 70 125 102 162 151 112 87 63 83 86 15 28 48 13 25 72 92 115 114 137 93 52 117 181 188 183 194 202 202 214 202 185 179 168 172 216 239 224 58 90 148 165 185 189 191 184 86 184 176 156 173 180 169 164 150 168 205 204 177 200 151 140 263 273 243 194 204 211 215 222 217 211 224 221 205 211 216 212 210 206
112 98 138 158 160 153 136 117 118 117 94 213 136 85 78 70 59 75 35 35 50 16 8 31 29 101 96 105 119 106 117 150 206 200 209 216 215 222 199 187 182 167 164 193 220 207 48 92 161 161 144 32 12 12 25 68 146 135 147 161 162 181 184 184 189 169 177 203 167 172 249 260 260 224 218 228 230 227 212 203 216 222 209 212 216 210 206 208
108 78 127 157 171 165 148 162 161 146 130 84 99 90 67 53 57 90 69 54 87 71 70 19 344 17 65 66 80 128 159 128 3 311 273 236 234 261 213 195 183 172 176 182 177 163 170 206 175 156 144 85 58 142 17 3 177 184 196 176 182 193 182 146 116 123 196 208 177 194 243 245 266 281 257 264 242 220 222 219 218 217 204 207 212 207 204 205
122 75 81 127 5 3 157 171 149 142 132 121 133 145 121 70 13 130 119 114 149 134 134 250 348 60 73 62 44 53 134 123 32 350 353 325 287 314 288 206 191 192 198 172 155 150 190 225 192 175 177 174 185 193 188 185 185 190 195 187 189 192 181 174 176 166 215 210 175 200 233 233 346 314 289 317 256 226 237 232 226 230 216 206 205 202 201 202
132 100 116 108 15 14 12 26 121 137 151 143 141 158 145 142 250 112 106 117 184 134 123 151 64 58 60 74 62 34 147 128 126 67 359 313 302 316 329 251 207 210 196 157 152 140 117 236 241 235 225 194 200 214 184 168 177 189 193 193 194 194 189 186 185 195 212 201 175 224 237 244 285 263 251 274 248 229 234 209 209 228 224 211 209 206 203 204
118 127 152 138 95 101 16 21 129 146 164 146 145 174 152 136 107 5 20 6 182 95 93 118 114 104 121 119 112 254 181 140 159 172 186 220 294 309 325 316 250 219 174 149 161 130 111 203 216 235 256 269 346 314 170 160 178 189 191 196 197 192 188 189 205 215 207 166 220 240 234 237 247 234 221 248 242 229 234 215 211 221 214 206 207 209 212 215
111 129 162 127 120 162 169 174 158 150 145 131 117 155 152 141 134 128 346 332 4 51 73 36 144 156 170 166 162 202 102 131 190 199 169 177 255 297 304 286 260 191 159 174 241 122 136 210 191 202 248 264 335 333 207 175 188 195 194 194 190 184 186 195 213 219 198 177 228 234 223 231 243 230 209 222 216 207 219 214 208 218 214 205 199 202 212 215
113 101 109 66 88 153 141 130 141 142 146 145 131 159 166 170 173 176 151 88 8 316 132 167 214 176 168 167 157 170 187 180 209 215 172 169 198 198 205 260 272 165 162 181 208 139 167 207 167 166 237 252 260 299 280 203 203 207 207 200 190 188 192 198 211 218 208 204 232 241 238 241 246 232 215 213 202 200 222 219 180 202 218 214 205 205 213 215
133 146 133 86 73 122 120 121 138 147 155 153 166 193 175 179 184 189 159 134 161 225 186 204 221 190 161 166 171 199 208 199 207 206 172 169 190 194 198 212 231 27 195 192 177 190 208 193 140 146 215 245 238 246 271 262 223 213 213 208 197 195 199 205 213 218 214 218 235 244 246 249 251 236 205 190 192 208 248 257 223 218 220 215 210 213 217 217
107 122 126 117 101 120 134 136 133 141 151 159 187 186 176 197 193 179 181 174 167 168 184 210 222 198 128 151 193 220 219 206 207 200 179 178 187 188 229 230 175 139 212 226 187 175 194 186 116 138 200 232 219 217 233 256 269 241 219 206 198 197 203 209 214 215 208 210 226 236 240 248 253 225 156 171 192 205 225 229 225 228 221 208 208 216 219 217
83 80 105 105 94 132 150 126 114 147 173 186 195 177 173 204 185 158 179 241 179 178 188 203 212 189 137 199 223 228 224 219 220 200 179 195 241 213 228 274 269 215 182 198 205 166 178 172 143 156 205 231 200 196 212 226 256 254 224 205 199 199 205 209 215 220 214 206 215 225 230 237 233 131 158 193 194 202 214 215 216 223 220 211 215 220 221 218